Regional Weather Roundup
Issued by NWS

Home | Current Version | Previous Version | Graphics & Text | Print | Product List | Glossary On
Versions: 1 2 3 4 5 6 7 8 9 10 11 12 13 14 15 16 17 18 19 20 21 22 23 24 25 26 27 28 29 30 31 32 33 34 35 36 37 38 39 40 41 42 43 44 45 46 47 48 49 50
000
ASUS43 KOAX 181402
RWRNE

WEATHER ROUNDUP FOR NEBRASKA
NATIONAL WEATHER SERVICE OMAHA NE
800 AM CST THU DEC 18 2014

NOTES: SATELLITE DATA IS BEING USED TO AUGMENT CLOUD COVER ABOVE
       12000 FEET.
       "FAIR" INDICATES FEW OR NO CLOUDS BELOW 12,000 FEET WITH NO
       SIGNIFICANT WEATHER AND/OR OBSTRUCTIONS TO VISIBILITY.

  * THESE STATIONS DO NOT REPORT WEATHER SUCH AS RAIN...SNOW OR FOG.

NEZ001>004-019>022-054>056-181500-
NEBRASKA PANHANDLE

CITY           SKY/WX    TMP DP  RH WIND       PRES   REMARKS
SCOTTSBLUFF    CLOUDY     8   5  87 W5        30.05R FOG     WCI   0
ALLIANCE       CLEAR     -1  -6  79 SW5       30.01R WCI -11
CHADRON        CLEAR      3  -1  83 W7        30.03S WCI  -9
SIDNEY         PTCLDY    16  12  84 NW13      30.01R WCI   2
$$

NEZ057>060-069>072-079>082-181500-
SOUTHWEST NEBRASKA

CITY           SKY/WX    TMP DP  RH WIND       PRES   REMARKS
NORTH PLATTE   CLOUDY    24  22  91 SW6       30.09S WCI  17
IMPERIAL       CLOUDY    25  23  92 W6        30.07R WCI  18
MCCOOK         CLOUDY    23  21  92 S5        30.12R WCI  17
$$

NEZ005>010-023>029-035>040-094-181500-
NORTH CENTRAL NEBRASKA

CITY           SKY/WX    TMP DP  RH WIND       PRES   REMARKS
VALENTINE      CLOUDY    25  21  85 W6        30.07R WCI  18
BROKEN BOW     CLOUDY    24  22  91 SE5       30.11R FOG     WCI  18
ORD            CLOUDY    23  20  88 SE6       30.14R WCI  16
$$

NEZ041-046>049-061>064-073>077-083>087-181500-
SOUTH CENTRAL NEBRASKA

CITY           SKY/WX    TMP DP  RH WIND       PRES   REMARKS
GRAND ISLAND   LGT SNOW  23  21  92 SE5       30.17S FOG     WCI  17
HASTINGS       CLOUDY    24  21  88 SE8       30.15S WCI  15
KEARNEY *      CLOUDY    25  21  86 SE5       30.15R WCI  19
$$

NEZ011>018-030>034-042>045-181500-
NORTHEAST NEBRASKA

CITY           SKY/WX    TMP DP  RH WIND       PRES   REMARKS
NORFOLK        CLOUDY    25  22  88 SE6       30.18F WCI  18
BLAIR          LGT SNOW  26  24  89 E6        30.22S WCI  20
COLUMBUS *     PTCLDY    23  18  80 E3        30.21S
TEKAMAH        CLOUDY    27  21  78 SE6       30.24S WCI  20
$$

NEZ050>053-065>068-078-088>093-181500-
SOUTHEAST NEBRASKA

CITY           SKY/WX    TMP DP  RH WIND       PRES   REMARKS
LINCOLN        CLOUDY    27  24  89 CALM      30.23S
OMAHA EPPLEY   LGT SNOW  26  23  88 SE6       30.26R FOG     WCI  19
FALLS CITY     FLURRIES  27  24  89 E5        30.23R WCI  22
$$

NEZ044-045-051>053-067-181500-
OMAHA AREA

CITY           SKY/WX    TMP DP  RH WIND       PRES   REMARKS
OMAHA EPPLEY   LGT SNOW  26  23  88 SE6       30.26R FOG     WCI  19
BLAIR          LGT SNOW  26  24  89 E6        30.22S WCI  20
$$



USA.gov is the U.S. government's official web portal to all federal, state and local government web resources and services.